Tracking 29495 objects as of 7-Sep-2024
HD Live streaming from Space Station
objects crossing your sky now

FENGYUN 1C DEB

Track FENGYUN 1C DEB now!
10-day predictions


NORAD ID: 33664
Int'l Code: 1999-025DEZ
Perigee: 771.2 km
Apogee: 1,011.7 km
Inclination: 98.6 °
Period: 102.7 minutes
Semi major axis: 7262 km
RCS: 0.0059 m2 (small)
Launch date: May 10, 1999
Source: People's Republic of China (PRC)
Launch site: Taiyaun Space Center, China (TSC)

Note: This is SATELLITE DEBRIS
Your satellite tracking list
Your tracking list is empty




NASA's NSSDC Master Catalog

Two Line Element Set (TLE):
1 33664U 99025DEZ 24234.89609355  .00001380  00000-0  81610-3 0  9998
2 33664  98.6499  39.3467 0165531 301.6299  56.8809 14.02742048840361
Source of the keplerian elements: AFSPC